Search
Race

Overall

Place Bib Name Age Sex City State Time
1 1766 Zach Pittman 18 M Martell NE 17:32
2 1750 Brandon Mitzel 19 M West Point NE 17:56
3 1792 Kolby Tighe 15 M Fremont NE 18:45
4 1737 Ray Longoria 39 M Kearney NE 19:02
5 1797 Trajan Trent 21 M Wichita KS 19:16
6 1708 Madison Haldiman 17 F Lincoln TX 19:20
7 1707 Tessa Hain 32 F Neligh NE 19:52
8 1702 Lucas Frazier 15 M Beatrice NE 20:04
9 1795 Doug Trent 40 M Louisville NE 20:35
10 1700 Katie Fischer 35 F Lincoln NE 20:50
11 1729 Nate Kolb 23 M Lincoln NE 21:11
12 1710 Jordan Harper 29 M Lincoln NE 21:15
13 1736 Matt Loeffler 36 M Columbus NE 21:16
14 1701 Brian Fleming 47 M Lincoln NE 21:19
15 1722 Kim Kaliff 61 M York NE 21:22
16 1654 Randi Cartier 27 F Lincoln NE 21:33
17 1613 Nick Brandt 35 M Waverly NE 21:43
18 1742 Andrew Mason 33 M Lincoln NE 22:12
19 1789 Alvin Sueper 51 M Lincoln NE 22:16
20 1788 Jay Storz 52 M Denton NE 22:41
21 1791 Rick Tast 49 M Lincoln NE 22:51
22 1678 Dawn Claus 57 F Sutton NE 22:57
23 1760 Brad Penner 58 M Lincoln NE 22:58
24 1612 Anthony Brandon 40 M Lincoln NE 22:59
25 1692 John Douglas 28 M Lincoln NE 23:20
26 1733 Melissa Lee 39 F Lincoln NE 23:24
27 1799 Tyler Ward 16 M Crete NE 23:49
28 1679 Janelle Coady 51 F Roca NE 24:04
30 1741 Richard Marunda 44 M Papillion NE 24:06
29 1740 Ambrose Marunda 12 M Papillion NE 24:06
31 1699 Rachel Fielding 22 F Elburn IL 24:10
32 1786 Joe Stelmach 44 M Lincoln NE 24:22
33 1610 Luke Bossard 45 M Roca NE 24:28
34 1689 Danielle Dewees 30 F Bennet NE 25:22
35 813 Andrew Ashby 34 M Lincoln NE 25:23
36 1952 Turner Zahn 11 M Syracuse NE 25:30
37 1625 Matthew Browning 13 M Lincoln NE 25:53
38 1950 Sherri Wren 59 F Lincoln NE 26:00
40 1758 Karla Ott 58 F York NE 26:08
39 1756 Claire Oglesby 48 F Lincoln NE 26:08
41 830 Joanne Bailey 60 F Lincoln NE 26:09
42 1787 Scott Stempson 54 M Lincoln NE 26:19
43 1744 Ed McCaskill 35 M Bellevue NE 26:50
44 1711 Zach Harwick 17 M Louisville NE 26:55
46 1790 Emily Tast 12 F Lincoln NE 27:11
45 1754 Levi Nicholson 32 M North Platte NE 27:11
47 1698 Amber Fader 45 F Lincoln NE 27:14
48 1672 Brian Clark 68 M Lincoln NE 27:19
49 1764 John Petr 68 M Kearney NE 27:28
50 1718 Bev Janak 68 F Omaha NE 27:31
Next